Skip Page Navigation
NASA JPL Caltech
NASA Logo - Jet Propulsion Laboratory + View the NASA Portal
+ Center for Near-Earth Object Studies
JPL Home Earth Solar System Stars & Galaxies Technology
JPL Solar System Dynamics
BODIES ORBITS EPHEMERIDES TOOLS PHYSICAL DATA DISCOVERY FAQ SITE MAP
IMPORTANT: The SSD Announcement email list is now available. Major changes are coming in the near future, including possible hostname and/or URL changes. To be notified of such changes, subscribe to this email list.

Please visit this page for more details.


JPL Small-Body Database Browser
Search: [ help ]  
66304 (1999 JV37)
Classification: Main-belt Asteroid          SPK-ID: 2066304
Ephemeris | Orbit Diagram | Orbital Elements | Mission Design | Physical Parameters | Discovery Circumstances | Close-Approach Data ]

[ show orbit diagram ]
Orbital Elements at Epoch 2459000.5 (2020-May-31.0) TDB
Reference: JPL 22 (heliocentric ecliptic J2000)
 Element Value Uncertainty (1-sigma)   Units 
e .2023420535229783 4.3486e-08  
a 2.226506411548038 8.6791e-09 au
q 1.775990532053331 9.8396e-08 au
i 4.056863701685287 4.0079e-06 deg
node 270.5293711279893 7.1113e-05 deg
peri 76.47710293287302 7.1816e-05 deg
M 25.35838668534231 1.2037e-05 deg
tp 2458915.022173359541
(2020-Mar-06.52217336)
4.0313e-05 TDB
period 1213.484831365565
3.32
7.0954e-06
1.943e-08
d
yr
n .2966662546534538 1.7346e-09 deg/d
Q 2.677022291042745 1.0435e-08 au
  Orbit Determination Parameters
   # obs. used (total)      833  
   data-arc span      13027 days (35.67 yr)  
   first obs. used      1983-09-07  
   last obs. used      2019-05-08  
   planetary ephem.      DE431  
   SB-pert. ephem.      SB431-N16  
   condition code      0  
   norm. resid. RMS      .5848  
   source      ORB  
   producer      Otto Matic  
   solution date      2019-May-30 05:27:54  

Additional Information
 Earth MOID = .774413 au 
 Jupiter MOID = 2.75325 au 
 T_jup = 3.615 
[ show covariance matrix ]

Ephemeris | Orbit Diagram | Orbital Elements | Mission Design | Physical Parameters | Discovery Circumstances | Close-Approach Data ]

Physical Parameter Table
Parameter Symbol Value Units Sigma Reference Notes
absolute magnitude H 15.3   n/a MPO436244  

66304 (1999 JV37)          Discovered 1999-May-10 by LINEAR at Socorro
Reference: 20030910/Numbers.arcLast Updated: 2004-04-19

[ show close-approach data ]
Alternate Designations
 1999 JV37 = 1983 RB7 = 2000 YK79 
Ephemeris | Orbit Diagram | Orbital Elements | Mission Design | Physical Parameters | Discovery Circumstances | Close-Approach Data ]
ABOUT SSD CREDITS/AWARDS PRIVACY/COPYRIGHT GLOSSARY LINKS
FirstGov 2020-Apr-10 10:36 UT
(server date/time)  
NASA Home Page
Site Manager:   Ryan S. Park
Webmaster  Alan B. Chamberlin